When you browse on this site, cookies collect data to enhance your experience and personalize the content and advertising you see.
Visit our Privacy Policy to learn more. By continuing to use the site, you agree to this use of cookies and data.
  • en Suisse
  • Liste des pays
  • À 7 jours
  • Température de l'eau
  • Carte satellitaire
  • Carte météo
  • Widgets météo
  • user-avatar
    Se connecter

    Météo par heure à Neuquén

    Ce jour, 23 Mars, Samedi

    Heure Température Précipitation Vent Pression Humidité
    00:00 +21°C° 0 mm 5 m/s 732 mmHg 35%
    01:00 +21°C° 0 mm 7 m/s 732 mmHg 40%
    02:00 +20°C° 0 mm 8 m/s 732 mmHg 42%
    03:00 +20°C° 0 mm 8 m/s 732 mmHg 43%
    04:00 +19°C° 0 mm 9 m/s 732 mmHg 45%
    05:00 +19°C° 0 mm 9 m/s 732 mmHg 45%
    06:00 +19°C° 0 mm 10 m/s 732 mmHg 44%
    07:00 +21°C° 0 mm 9 m/s 733 mmHg 43%
    08:00 +22°C° 0 mm 10 m/s 733 mmHg 39%
    09:00 +23°C° 0 mm 11 m/s 733 mmHg 34%
    10:00 +26°C° 0 mm 12 m/s 733 mmHg 30%
    11:00 +27°C° 0 mm 11 m/s 733 mmHg 25%
    12:00 +28°C° 0 mm 11 m/s 733 mmHg 20%
    13:00 +29°C° 0 mm 11 m/s 733 mmHg 14%
    14:00 +29°C° 0 mm 10 m/s 733 mmHg 14%
    15:00 +28°C° 0 mm 10 m/s 733 mmHg 13%
    16:00 +28°C° 0 mm 9 m/s 733 mmHg 12%
    17:00 +27°C° 0 mm 8 m/s 734 mmHg 15%
    18:00 +24°C° 0 mm 6 m/s 735 mmHg 17%
    19:00 +22°C° 0 mm 5 m/s 735 mmHg 20%
    20:00 +21°C° 0 mm 5 m/s 736 mmHg 21%
    21:00 +21°C° 0 mm 4 m/s 736 mmHg 23%
    22:00 +20°C° 0 mm 4 m/s 737 mmHg 25%
    23:00 +19°C° 0 mm 4 m/s 737 mmHg 27%

    Demain, 24 Mars, Dimanche

    Heure Température Précipitation Vent Pression Humidité
    00:00 +19°C° 0 mm 4 m/s 738 mmHg 29%
    01:00 +18°C° 0 mm 3 m/s 738 mmHg 31%
    02:00 +17°C° 0 mm 3 m/s 738 mmHg 33%
    03:00 +16°C° 0 mm 3 m/s 738 mmHg 36%
    04:00 +16°C° 0 mm 3 m/s 739 mmHg 38%
    05:00 +16°C° 0 mm 3 m/s 739 mmHg 40%
    06:00 +16°C° 0 mm 3 m/s 739 mmHg 43%
    07:00 +17°C° 0 mm 3 m/s 740 mmHg 45%
    08:00 +18°C° 0 mm 3 m/s 740 mmHg 42%
    09:00 +19°C° 0 mm 3 m/s 740 mmHg 38%
    10:00 +20°C° 0 mm 4 m/s 740 mmHg 35%
    11:00 +21°C° 0 mm 4 m/s 739 mmHg 32%
    12:00 +22°C° 0 mm 4 m/s 739 mmHg 29%
    13:00 +23°C° 0 mm 4 m/s 738 mmHg 26%
    14:00 +23°C° 0 mm 4 m/s 738 mmHg 25%
    15:00 +25°C° 0 mm 4 m/s 737 mmHg 24%
    16:00 +25°C° 0 mm 5 m/s 737 mmHg 23%
    17:00 +23°C° 0 mm 5 m/s 737 mmHg 25%
    18:00 +22°C° 0 mm 5 m/s 737 mmHg 27%
    19:00 +21°C° 0 mm 5 m/s 738 mmHg 29%
    20:00 +20°C° 0 mm 6 m/s 738 mmHg 32%
    21:00 +20°C° 0 mm 6 m/s 738 mmHg 35%
    22:00 +18°C° 0 mm 7 m/s 738 mmHg 38%
    23:00 +19°C° 0 mm 6 m/s 738 mmHg 41%

    Après-demain, 25 Mars, Lundi

    Heure Température Précipitation Vent Pression Humidité
    00:00 +17°C° 0 mm 6 m/s 738 mmHg 43%
    01:00 +17°C° 0 mm 6 m/s 738 mmHg 46%
    02:00 +16°C° 0 mm 5 m/s 738 mmHg 48%
    03:00 +15°C° 0 mm 5 m/s 738 mmHg 50%
    04:00 +14°C° 0 mm 4 m/s 738 mmHg 51%
    05:00 +15°C° 0 mm 5 m/s 738 mmHg 51%
    06:00 +15°C° 0 mm 5 m/s 739 mmHg 50%
    07:00 +15°C° 0 mm 5 m/s 739 mmHg 50%
    08:00 +16°C° 0 mm 5 m/s 739 mmHg 47%
    09:00 +17°C° 0 mm 6 m/s 739 mmHg 45%
    10:00 +19°C° 0 mm 6 m/s 740 mmHg 42%
    11:00 +20°C° 0 mm 6 m/s 739 mmHg 39%
    12:00 +21°C° 0 mm 6 m/s 739 mmHg 37%
    13:00 +22°C° 0 mm 6 m/s 739 mmHg 34%
    14:00 +22°C° 0 mm 6 m/s 738 mmHg 33%
    15:00 +21°C° 0 mm 7 m/s 738 mmHg 32%
    16:00 +21°C° 0 mm 7 m/s 738 mmHg 32%
    17:00 +20°C° 0 mm 6 m/s 738 mmHg 34%
    18:00 +19°C° 0 mm 5 m/s 739 mmHg 36%
    19:00 +17°C° 0 mm 5 m/s 739 mmHg 39%
    20:00 +18°C° 0 mm 4 m/s 739 mmHg 40%
    21:00 +17°C° 0 mm 4 m/s 740 mmHg 40%
    22:00 +17°C° 0 mm 4 m/s 740 mmHg 41%
    23:00 +15°C° 0 mm 4 m/s 740 mmHg 41%

    26 Mars, Mardi

    Heure Température Précipitation Vent Pression Humidité
    00:00 +15°C° 0 mm 4 m/s 740 mmHg 42%
    01:00 +14°C° 0 mm 3 m/s 740 mmHg 42%
    02:00 +14°C° 0 mm 4 m/s 740 mmHg 44%
    03:00 +13°C° 0 mm 4 m/s 740 mmHg 45%
    04:00 +13°C° 0 mm 4 m/s 740 mmHg 47%
    05:00 +13°C° 0 mm 4 m/s 740 mmHg 48%
    06:00 +13°C° 0 mm 5 m/s 740 mmHg 49%
    07:00 +13°C° 0 mm 5 m/s 741 mmHg 50%
    08:00 +15°C° 0 mm 5 m/s 741 mmHg 44%
    09:00 +17°C° 0 mm 6 m/s 741 mmHg 38%
    10:00 +20°C° 0 mm 6 m/s 741 mmHg 32%
    11:00 +21°C° 0 mm 7 m/s 741 mmHg 29%
    12:00 +22°C° 0 mm 7 m/s 740 mmHg 27%
    13:00 +23°C° 0 mm 7 m/s 740 mmHg 25%
    14:00 +23°C° 0 mm 7 m/s 739 mmHg 25%
    15:00 +23°C° 0 mm 7 m/s 739 mmHg 25%
    16:00 +23°C° 0 mm 7 m/s 739 mmHg 26%
    17:00 +22°C° 0 mm 7 m/s 739 mmHg 27%
    18:00 +21°C° 0 mm 6 m/s 739 mmHg 29%
    19:00 +20°C° 0 mm 6 m/s 739 mmHg 30%
    20:00 +19°C° 0 mm 6 m/s 739 mmHg 30%
    21:00 +19°C° 0 mm 6 m/s 740 mmHg 30%
    22:00 +19°C° 0 mm 6 m/s 740 mmHg 30%
    23:00 +17°C° 0 mm 6 m/s 739 mmHg 31%

    27 Mars, Mercredi

    Heure Température Précipitation Vent Pression Humidité
    00:00 +17°C° 0 mm 6 m/s 739 mmHg 31%
    01:00 +17°C° 0 mm 6 m/s 739 mmHg 32%
    02:00 +16°C° 0 mm 5 m/s 739 mmHg 34%
    03:00 +16°C° 0 mm 5 m/s 738 mmHg 35%
    04:00 +15°C° 0 mm 5 m/s 738 mmHg 36%
    05:00 +15°C° 0 mm 6 m/s 738 mmHg 37%
    06:00 +16°C° 0 mm 6 m/s 738 mmHg 38%
    07:00 +16°C° 0 mm 7 m/s 738 mmHg 39%
    08:00 +18°C° 0 mm 7 m/s 738 mmHg 38%
    09:00 +20°C° 0 mm 8 m/s 738 mmHg 38%
    10:00 +22°C° 0 mm 8 m/s 738 mmHg 37%
    11:00 +23°C° 0 mm 8 m/s 738 mmHg 36%
    12:00 +26°C° 0 mm 8 m/s 737 mmHg 35%
    13:00 +27°C° 0 mm 8 m/s 736 mmHg 34%
    14:00 +27°C° 0 mm 8 m/s 736 mmHg 34%
    15:00 +28°C° 0 mm 8 m/s 735 mmHg 34%
    16:00 +28°C° 0 mm 9 m/s 735 mmHg 34%
    17:00 +27°C° 0 mm 8 m/s 735 mmHg 37%
    18:00 +26°C° 0 mm 8 m/s 735 mmHg 40%
    19:00 +24°C° 0 mm 7 m/s 735 mmHg 42%
    20:00 +23°C° 0 mm 7 m/s 735 mmHg 44%
    21:00 +23°C° 0 mm 6 m/s 735 mmHg 46%
    22:00 +22°C° 0 mm 6 m/s 735 mmHg 48%
    23:00 +21°C° 0 mm 5 m/s 735 mmHg 51%

    28 Mars, Jeudi

    Heure Température Précipitation Vent Pression Humidité
    00:00 +21°C° 0 mm 4 m/s 735 mmHg 53%
    01:00 +20°C° 0 mm 4 m/s 734 mmHg 55%
    02:00 +19°C° 0 mm 3 m/s 734 mmHg 59%
    03:00 +19°C° 0 mm 3 m/s 734 mmHg 62%
    04:00 +18°C° 0 mm 2 m/s 734 mmHg 65%
    05:00 +19°C° 0 mm 2 m/s 734 mmHg 64%
    06:00 +19°C° 0 mm 2 m/s 735 mmHg 62%
    07:00 +20°C° 0 mm 1 m/s 735 mmHg 60%
    08:00 +23°C° 0 mm 1 m/s 735 mmHg 53%
    09:00 +25°C° 0 mm 1 m/s 735 mmHg 46%
    10:00 +27°C° 0 mm 1 m/s 736 mmHg 38%
    11:00 +28°C° 0 mm 1 m/s 735 mmHg 33%
    12:00 +30°C° 0 mm 1 m/s 735 mmHg 28%
    13:00 +31°C° 0 mm 1 m/s 735 mmHg 23%
    14:00 +31°C° 0 mm 2 m/s 735 mmHg 22%
    15:00 +32°C° 0 mm 2 m/s 734 mmHg 20%
    16:00 +33°C° 0 mm 3 m/s 734 mmHg 18%
    17:00 +30°C° 0 mm 2 m/s 734 mmHg 20%
    18:00 +29°C° 0 mm 2 m/s 735 mmHg 22%
    19:00 +27°C° 0 mm 1 m/s 735 mmHg 25%
    20:00 +26°C° 0 mm 2 m/s 735 mmHg 25%
    21:00 +26°C° 0 mm 2 m/s 735 mmHg 26%
    22:00 +25°C° 0 mm 2 m/s 735 mmHg 27%
    23:00 +25°C° 0 mm 2 m/s 735 mmHg 29%
    Voir plus